Location: Braunsdorf
(50.7357°N, 11.9136°E)
Time: 18:38:12
(UTC+00:00)

STARLINK-1135 - Pass Details

Date: 17 February 2020
Orbit: 548 x 551 km, 53.0° (Epoch: 28 March)

Event Time Altitude Azimuth Distance (km) Brightness Sun altitude
Exits shadow 03:52:12 64° 29° (NNE) 614 3.9 -24.2°
Drops below altitude 10° 03:55:58 10° 74° (ENE) 1,833 7.4 -23.7°
Enters shadow 04:52:15 -70° 270° (W) 12,579 10.4 -14.8°
Maximum altitude 05:31:41 70° 10° (N) 592 3.8 -8.6°
